DIRECTV 15

Last updated on Thu Nov 06 2025 00:02:48 GMT+0000 (Coordinated Universal Time)

1 40663U 15026A 25309.12947245 .00000000 00000+0 00000+0 0 9994 2 40663 0.0225 76.8045 0000231 152.5920 118.9632 1.00268426 38213
UTC large
Height (km)
Speed (km/s)
/
Latitude / Longitude
Inclination (degrees)
Orbital Period (minutes)
Azimuth
Elevation
Range (km)
Doppler Factor

Next 0 passes for location: London (51.5072 / 0.1276)

Sorry there are no passes over London.